Other Public Products
Issued by NWS Grand Forks, ND

Home | Current Version | Previous Version | Graphics & Text | Print | Product List | Glossary On
Versions: 1 2 3 4 5 6 7 8 9 10 11 12 13 14 15 16 17 18 19 20 21 22 23 24 25 26 27 28 29 30 31 32 33 34 35 36 37 38 39 40 41 42 43 44 45 46 47 48 49 50
000
FPUS83 KFGF 041031
OPUFGF
PRAIRIE TO PINES WEATHER ROUNDUP
NATIONAL WEATHER SERVICE EASTERN NORTH DAKOTA/GRAND FORKS ND
500 AM CDT MON MAY 04 2015

 **SATELLITE DATA USED TO AUGMENT SKY COVER AT AUTOMATED STATIONS**
 *****  WEATHER ACROSS EASTERN NORTH DAKOTA  *****

CITY           SKY/WX    TMP DP  RH WIND       PRES   REMARKS
GRAND FORKS    CLEAR     35  29  78 N3        30.13R
GRAND FORKS AF CLEAR     33  28  80 N3        30.13R
GRAND CITY NWS   N/A     34 N/A N/A VRB2        N/A
BUXTON           N/A     41  31  66 CALM        N/A
DEVILS LAKE    CLEAR     34  25  69 CALM      30.15R
FARGO          CLEAR     38  25  59 N3        30.12R
WAHPETON ARPT  SUNNY     37  27  65 N5        30.13R
$$

 *****  WEATHER ACROSS CENTRAL AND WESTERN NORTH DAKOTA  *****

CITY           SKY/WX    TMP DP  RH WIND       PRES   REMARKS
JAMESTOWN      MOCLDY    34  26  72 NW6       30.13R
BISMARCK       MOCLDY    33  25  72 CALM      30.17R
MINOT          CLEAR     36  26  67 SW7       30.13R
MINOT AFB      CLEAR     29  25  85 SW3       30.13R
GARRISON         N/A     35  27  72 N7        30.14R
WILLISTON      CLEAR     34  23  64 CALM      30.12S
DICKINSON      MOCLDY    38  26  62 E5        30.12R
HETTINGER      CLOUDY    34  27  75 CALM      30.14R
$$

 *****  OTHER OBSERVATIONS NORTHEAST NORTH DAKOTA  *****

CITY           SKY/WX    TMP DP  RH WIND       PRES   REMARKS
WALHALLA       FAIR      36  36 100 SW3       30.15R
LANGDON        FAIR      30  28  93 CALM      30.15R
CAVALIER       FAIR      34  32  93 W3        30.15R
GRAFTON        FAIR      37  36  93 NW5       30.16R
CANDO          FAIR      32  28  86 CALM      30.15R
FORT TOTTEN    NOT AVBL
ROLLA          NOT AVBL
RUGBY          NOT AVBL
 ***** THE ABOVE OBSERVATIONS ARE NON NWS ARE NOT QUALITY
        CONTROLLED AND MAY MIS-REPORT RAIN FOR SNOW...
$$

 *****  OTHER OBSERVATIONS SOUTHEAST NORTH DAKOTA *****

CITY           SKY/WX    TMP DP  RH WIND       PRES   REMARKS
COOPERSTOWN    NOT AVBL
VALLEY CITY    FAIR      37  28  70 N6        30.13S
OAKES            N/A     37  27  65 NW5       30.14R
GWINNER        SUNNY     43  27  52 N9        30.14R
SHEYENNE NWR     N/A     42  28  56 N5        29.95S
BUFFALO        NOT AVBL
WYNDMERE       NOT AVBL
 ***** THE ABOVE OBSERVATIONS ARE NON NWS ARE NOT QUALITY
       CONTROLLED AND MAY MIS-REPORT RAIN FOR SNOW...
$$

  *****  WEATHER ACROSS NORTHERN MINNESOTA  *****

CITY           SKY/WX    TMP DP  RH WIND       PRES   REMARKS
FLAG ISLAND    CLEAR     41  37  87 NW6       30.12R
WARROAD        CLEAR     30  27  86 CALM      30.14R
ROSEAU         CLEAR     28  25  86 SW3       30.14R
HALLOCK        CLEAR     34  30  86 CALM      30.15R
THF RVR FALLS  CLEAR     39  32  75 CALM      30.14R
HALSTAD          N/A     35  21  57 N8          N/A
FOSSTON        NOT AVBL
BAUDETTE       CLEAR     34  33  96 W7        30.12R
WASKISH        FAIR      39  37  93 CALM      30.12R
CROOKSTON      CLEAR     41  34  75 E7        30.14S
$$
  *****  WEATHER ACROSS CENTRAL AND WEST MINNESOTA  *****

CITY           SKY/WX    TMP DP  RH WIND       PRES   REMARKS
BEMIDJI        CLEAR     31  29  93 CALM      30.13R
PARK RAPIDS    CLEAR     36  30  79 CALM      30.11R
WADENA         CLEAR     39  30  70 CALM      30.10R
DETROIT LAKES  CLEAR     43  34  70 CALM      30.12R
MOORHEAD       CLEAR     39  27  60 N3        30.13R
FERGUS FALLS   CLEAR     46  32  57 E5        30.12R
ELBOW LAKE     FAIR      48  34  57 NE3       30.11R
MORRIS MN      CLEAR     37  28  70 NW5       30.10R
STAPLES        CLEAR     37  30  75 CALM      30.10R
WHEATON        CLEAR     39  28  65 CALM      30.14R
$$
  *****  WEATHER ELSEWHERE ACROSS MINNESOTA  *****

CITY           SKY/WX    TMP DP  RH WIND       PRES   REMARKS
DULUTH         CLEAR     45  34  65 N8        30.05R
INTRNTL FALLS  CLEAR     31  30  96 W3        30.08R
ELY            CLEAR     32  30  93 CALM      30.06R
CLOQUET        CLEAR     41  32  70 NW5       30.07R
BRAINERD       CLEAR     38  34  85 CALM      30.09R
HIBBING        CLEAR     36  32  85 NW3       30.07R
ALEXANDRIA     CLEAR     46  33  60 NE6       30.10R
SAINT CLOUD    CLEAR     41  32  70 CALM      30.07R
MINNEAPOLIS    PTCLDY    53  35  50 N12       30.05R
$$

  *****  WEATHER ACROSS SOUTH DAKOTA  *****

CITY           SKY/WX    TMP DP  RH WIND       PRES   REMARKS
SIOUX FALLS    PTCLDY    50  28  42 N10       30.08R
BROOKINGS      CLEAR     37  27  65 N3        30.12R
WATERTOWN      CLEAR     44  25  47 N5        30.12R
HURON          PTCLDY    33  25  72 NW8       30.12R
SISSETON         N/A     44  27  51 NW10      30.11R
ABERDEEN       MOCLDY    39  26  59 N6        30.14R
MITCHELL       PTCLDY    39  33  79 NW6       30.11R
PIERRE         CLOUDY    42  25  50 SE8       30.13R
MOBRIDGE       CLOUDY    38  26  62 CALM      30.13R
RAPID CITY     LGT RAIN  50  34  54 S9        30.14R
$$

  *****  SOME WEATHER IN NEARBY STATES *****

CITY           SKY/WX    TMP DP  RH WIND       PRES   REMARKS
GLASGOW MT     CLEAR     39  24  55 E12       30.07S
GREAT FALLS MT CLEAR     41  30  65 CALM      29.95R
CHEYENNE WY    CLOUDY    45  39  79 SE15      30.10F
SCOTTSBLUFF NE MOCLDY    51  38  60 E8        30.10S
OMAHA NE       CLOUDY    59  52  77 N12       29.96R
DES MOINES IA  CLOUDY    63  55  75 E7        29.93R
DAVENPORT IA   LGT RAIN  59  57  93 SW8       30.00R FOG
CHICAGO IL     CLOUDY    61  53  75 S10       29.90F
EAU CLAIRE WI  CLEAR     53  42  66 N8        30.00R
LA CROSSE WI   MOCLDY    60  57  89 NW8       29.98R
$$

  *****  SOME NATIONAL WEATHER *****

CITY           SKY/WX    TMP DP  RH WIND       PRES   REMARKS
LA GUARDIA NY  PTCLDY    56  46  69 S5        30.18R
RALEIGH NC     PTCLDY    54  52  93 CALM      30.26R
ATLANTA GA     PTCLDY    60  50  69 CALM      30.21R
NEW ORLEANS LA PTCLDY    67  61  81 E5        30.07S
OKLAHOMA CITY  MOCLDY    61  56  83 SE9       29.97F
ALBUQUERQUE NM PTCLDY    59  43  55 N12       30.01S
SALT LAKE CITY CLOUDY    60  45  57 SE15      29.93S
LOS ANGELES CA PTCLDY    57  51  80 S8        29.93R
BOISE ID       CLEAR     54  32  43 CALM      29.84S
SEATTLE WA     CLEAR     50  39  66 CALM      29.88F
$$

*** WEATHER ACROSS MANITOBA...SASKATCHEWAN AND ONTARIO ***
                ***ONTARIO***

CITY           SKY/WX    TMP DP  RH WIND       PRES   REMARKS
GERALDTON      MOCLDY    41  39  93 NW6       29.91R
THUNDER BAY    PTCLDY    45  37  76 W8        29.97R
SIOUX LOOKOUT  CLOUDY    41  37  87 NW9       30.05R
TORONTO        MOCLDY    57  41  54 SE5       30.04R
BIG TROUT LK   FLURRIES  30  30 100 W3        29.98R
PICKLE LAKE    NOT AVBL
DRYDEN         PTCLDY    37  36  93 W8        30.06R
KENORA         PTCLDY    36  34  93 W6        30.10
$$
                *** MANITOBA***

CITY           SKY/WX    TMP DP  RH WIND       PRES   REMARKS
BRANDON        CLEAR     28  25  86 NW9       30.13R WCI  20
DAUPHIN        CLEAR     39  32  75 SW9       30.10R
ISLAND LAKE    CLOUDY    34  32  93 W10       29.99S
PILOT MOUND      N/A     30  28  93 S5          N/A
THE PAS        CLEAR     28  21  74 VRB2      30.11R
THOMPSON       PTCLDY    30  28  93 NW5       29.99R
WINNIPEG       PTCLDY    28  28 100 VRB3      30.14R
LYNN LAKE      FLURRIES  28  25  86 W7        30.01R WCI  21
CHURCHILL      MOCLDY    16  12  86 W6        29.93S WCI   7
GILLAM         FLURRIES  30  27  86 SW8       29.92F WCI  23
$$
                ***SASKATCHEWAN***

CITY           SKY/WX    TMP DP  RH WIND       PRES   REMARKS
ESTEVAN        CLEAR     34  32  93 NE3       30.12S
KINDERSLEY     PTCLDY    30  27  86 S6        30.08R WCI  24
LLOYDMINSTER   PTCLDY    32  28  86 S7        30.05S
PRINCE ALBERT  PTCLDY    30  25  80 NE3       30.12R
REGINA         PTCLDY    32  30  93 E6        30.13R



USA.gov is the U.S. government's official web portal to all federal, state and local government web resources and services.